Regional Weather Roundup
Issued by NWS State College, PA

Home | Current Version | Previous Version | Graphics & Text | Print | Product List | Glossary Off
Versions: 1 2 3 4 5 6 7 8 9 10 11 12 13 14 15 16 17 18 19 20 21 22 23 24 25 26 27 28 29 30 31 32 33 34 35 36 37 38 39 40 41 42 43 44 45 46 47 48 49 50

426
ASUS41 KCTP 021703
RWRCTP

REGIONAL WEATHER ROUNDUP
NATIONAL WEATHER SERVICE STATE COLLEGE PA
100 PM EDT MON MAY 02 2016

Note: "fair" indicates few or no clouds below 12,000 feet with no
significant weather and/or obstructions to visibility.

* = STATION THAT DOES NOT REPORT PRECIPITATION /E.G. RAIN...SNOW...ETC/
    THUNDER OR FOG.

PAZ002>004-007>009-013>016-020>023-029>032-021800-
WESTERN PENNSYLVANIA

CITY           SKY/WX    TMP DP  RH WIND       PRES   REMARKS
ERIE           CLOUDY    45  42  89 N9        30.01S
MEADVILLE        N/A    N/A N/A N/A MISG      29.97S
FRANKLIN*      CLOUDY    50  45  81 NW6       29.97S
NEW CASTLE     CLOUDY    53  49  86 NW8       29.97F
BEAVER COUNTY  CLOUDY    57  52  82 NW8       29.96S
BUTLER*        CLOUDY    59  52  77 NW9       29.97S
PITTSBURGH INT PTSUNNY   67  54  63 NW13G20   29.91F
PITTSBURGH     CLOUDY    65  54  67 NW9G18    29.90F
INDIANA*       MOSUNNY   66  57  72 NW12G18   29.93F
LATROBE        PTSUNNY   70  57  64 SW17G29   29.91F
WASHINGTON CO* PTSUNNY   72  55  56 W16       29.91F
$$

PAZ004>006-010>012-017>019-024>028-033>037-041-042-045-046-049>053-021800-
CENTRAL PENNSYLVANIA

CITY           SKY/WX    TMP DP  RH WIND       PRES   REMARKS
BRADFORD       CLOUDY    53  49  86 NW9       29.92S
DUBOIS         CLOUDY    58  50  75 W15       29.92S
CLEARFIELD     MOSUNNY   66  52  60 W16G24    29.90S
JOHNSTOWN      CLOUDY    65  48  54 W16G23    29.91S
ALTOONA        PTSUNNY   71  52  50 W14       29.89F
STATE COLLEGE  PTSUNNY   70  55  60 NW12      29.87F
WILLIAMSPORT   CLOUDY    57  52  83 VRB5      29.89R
SELINSGROVE    CLOUDY    56  53  90 S7        29.91S
FT INDIANTOWN  CLOUDY    53  53 100 E3        29.93S
CAPITAL CITY   CLOUDY    57  53  86 E8        29.93R FOG
HARRISBURG     CLOUDY    57  54  89 SE3       29.92S FOG
YORK           CLOUDY    63  58  83 CALM      29.91F HAZE
$$

PAZ038>040-043-044-047-048-054-055-060>062-067>071-021800-
EASTERN PENNSYLVANIA

CITY           SKY/WX    TMP DP  RH WIND       PRES   REMARKS
SCRANTON       CLOUDY    55  49  80 W8        29.89S
MOUNT POCONO   CLOUDY    51  49  92 VRB6      29.90F
ALLENTOWN      CLOUDY    53  49  86 SE6       29.93F FOG
QUAKERTOWN*    CLOUDY    50  50 100 CALM      29.95F
READING        CLOUDY    53  50  89 VRB7      29.92F FOG
LANCASTER      CLOUDY    55  53  93 SE6       29.93F FOG
COATESVILLE    FOG       54  54 100 CALM      29.95S VSB 1/2
POTTSTOWN      CLOUDY    52  50  93 CALM      29.96S FOG
BLUE BELL      CLOUDY    52  50  93 CALM      29.93F
DOYLESTOWN     CLOUDY    49  49 100 CALM      29.94F FOG
WILLOW GROVE   NOT AVBL
NORTH PHILA    CLOUDY    55  50  83 CALM      29.96F HAZE
PHILADELPHIA   CLOUDY    56  51  84 CALM      29.95F FOG
$$




USA.gov is the U.S. government's official web portal to all federal, state and local government web resources and services.